Главная страница
METAR-TAF:

METAR-TAF

Аэропорты :

Кувейт, Кувейт

широта: 29-13N, долгота: 047-59E, высота над уровнем моря: 55 м

Текущие метеонаблюдения

Эта сводка был подготовлена 27 минут назад, в 07:00 UTC
Ветер 20 Узел от северно-северо-западный
Температура 26°C
Влажность 37%
Давление 1009 hPa
Видимость: 3000 м
Низовая пыльная метель

METAR: OKBK 230700Z 34020KT 3000 BLDU NSC 26/10 Q1009 NOSIG

Время: 10:27 (07:27 UTC)

Прогноз

Эта сводка был подготовлена 26 часа и 42 минут назад, в 04:45 UTC
Прогноз действительный с 22-го 06 UTC до 23-го 12 UTC
Ветер 12 Узел от юго-восточный с порывами до 22 Узел
Видимость: 6000 м
временами
С 22-го 06 UTC до 22-го 18 UTC
Видимость: 3000 м
небольшая облачность на высоте 2500 фута, Кучево-дождевые.
небольшая облачность на высоте 4000 фута
Рассеянная облачность на высоте 8000 фута

TAF: OKBK 220445Z 2206/2312 14012G22KT 6000 NSC TEMPO 2206/2218 3000 TSRA/BLDU FEW025CB FEW040 BKN080

Метеонаблюдения и прогнозы для более 4000 аэропортов (сводки METAR и TAF).

Имеющиеся станции представлены на карте желтыми и красными точками.

Чтобы увидеть название станции, наведите на нее мышь.

Затем щелкните, чтобы увидеть метеонаблюдения и метеопрогнозы.

Управление картой: чтобы увеличить масштаб, щелкните зеленые кнопки с черным крестиком; чтобы уменьшить масштаб, щелкните зеленую кнопку с тире; для просмотра соседних карт щелкайте зеленые стрелки.


METAR-TAF: